Terug naar catalogus

COSMOS 1261 DEB

LostHEO
NORAD 33520·DEBRIS·🇷🇺 Russia

Gelanceerd Mar 31, 1981 vanaf Plesetsk Cosmodrome

Loading…

Volgende Passages (komende 24 uur)

TLE

VerouderdSource: Space-Track

Epoch: Mar 12, 2017, 10:57 UTC

1 33520U 81031M   17071.45636941 -.00000620  00000-0  00000+0 0  9998
2 33520  69.2481 278.2744 5383156  80.3824  21.0722  2.00811053 83280

Volg COSMOS 1261 DEB in realtime met AllMySat

Download on the App Store